Arad, Romania

7:01 PM EEST on April 24, 2017 (GMT +0300)
Arad

Weather History for LRAR - December, 2013

Change the Weather History Date:

Monday, December 2, 2013

  Actual Average Record
Temperature  
Mean Temperature 32 °F -  
Max Temperature 42 °F 37 °F 62 °F (2015)
Min Temperature 21 °F 26 °F 21 °F (2013)
Degree Days  
Heating Degree Days 34    
Moisture  
Dew Point 30 °F    
Average Humidity 93    
Maximum Humidity 100    
Minimum Humidity 64    
Precipitation  
Precipitation 0.00 in - - ()
Sea Level Pressure  
Sea Level Pressure 30.40 in    
Wind  
Wind Speed 2 mph ()    
Max Wind Speed 10 mph    
Max Gust Speed -    
Visibility 2.7 miles    
Events Fog    
Averages and records for this station are not official NWS values.
T = Trace of Precipitation, MM = Missing Value Source: Averaged Metar Reports

Daily Weather History Graph

Daily Weather History Graph

Search for Another Location

Airport or City:

Trip Planner

Search our weather history database for the weather conditions in past years. The results will help you decide how hot, cold, wet, or windy it might be!

Date:

Astronomy

Dec. 02, 2013 Rise Set
Actual Time 7:58 AM EET 4:50 PM EET
Civil Twilight 7:24 AM EET 5:24 PM EET
Nautical Twilight 6:46 AM EET 6:02 PM EET
Astronomical Twilight 6:10 AM EET 6:38 PM EET
Moon 7:00 AM EET (12/2) 4:38 PM EET (12/2)
Length of Visible Light 10h 00m
Length of Day
8h 52m
Waning Crescent, 1% of the Moon is Illuminated
Dec 2
Waning Crescent
Dec 3
New
Dec 9
First Quarter
Dec 17
Full
Dec 25
Last Quarter

Hourly Weather History & Observations

Time (EET) Temp. Windchill Dew Point Humidity Pressure Visibility Wind Dir Wind Speed Gust Speed Precip Events Conditions
12:00 AM 28 °F - 28 °F 97% 30.33 in 1 mi SSW 2.2 mph - -   Mist
12:00 AM 26.6 °F - 26.6 °F 100% 30.30 in 1.2 mi Calm Calm - N/A   Mist
1:00 AM 28 °F - 28 °F 98% 30.34 in 1 mi WSW 2.2 mph - -   Mist
1:00 AM 26.6 °F - 26.6 °F 100% 30.30 in 1.2 mi Calm Calm - N/A   Mist
2:00 AM 27 °F - 27 °F 99% 30.33 in 1 mi Calm Calm - -   Mist
2:00 AM 24.8 °F - 24.8 °F 100% 30.30 in 1.1 mi Calm Calm - N/A   Mist
3:00 AM 26 °F - 26 °F 97% 30.32 in 0 mi SSW 2.2 mph - - Fog Heavy Fog
3:00 AM 23.0 °F - 23.0 °F 100% 30.30 in 1.6 mi Calm Calm - N/A   Mist
4:00 AM 24 °F - 24 °F 98% 30.32 in 0 mi Calm Calm - - Fog Heavy Fog
4:00 AM 23.0 °F - 23.0 °F 100% 30.27 in 1.9 mi SSE 2.3 mph - N/A   Mist
5:00 AM 22 °F - 22 °F 98% 30.33 in 0 mi Calm Calm - - Fog Heavy Fog
5:00 AM 23.0 °F - 23.0 °F 100% 30.30 in 1.9 mi South 2.3 mph - N/A   Mist
5:30 AM 21.2 °F - 21.2 °F 100% 30.30 in 1.9 mi SSW 2.3 mph - N/A   Mist
6:00 AM 23 °F - 23 °F 100% 30.33 in 0 mi South 2.2 mph - - Fog Heavy Fog
6:00 AM 21.2 °F - 21.2 °F 100% 30.30 in 1.9 mi Calm Calm - N/A Fog Fog
6:30 AM 23.0 °F - 23.0 °F 100% 30.30 in 2.5 mi Calm Calm - N/A Fog Fog
7:00 AM 23 °F - 23 °F 100% 30.35 in 0 mi Calm Calm - - Fog Heavy Fog
7:00 AM 23.0 °F - 23.0 °F 100% 30.33 in 2.5 mi Calm Calm - N/A   Mist
7:30 AM 23.0 °F - 23.0 °F 100% 30.33 in 2.2 mi Calm Calm - N/A   Mist
8:00 AM 22 °F - 22 °F 98% 30.37 in 1 mi Calm Calm - - Fog Light Fog
8:00 AM 23.0 °F - 23.0 °F 100% 30.33 in 2.2 mi Calm Calm - N/A   Mist
8:30 AM 23.0 °F - 23.0 °F 100% 30.33 in 1.9 mi South 2.3 mph - N/A Fog Fog
9:00 AM 26 °F - 26 °F 97% 30.37 in 1 mi South 4.5 mph - -   Mist
9:00 AM 24.8 °F - 24.8 °F 100% 30.36 in 2.5 mi Calm Calm - N/A Fog Fog
9:30 AM 26.6 °F - 26.6 °F 100% 30.36 in 2.5 mi Variable 2.3 mph - N/A Fog Fog
10:00 AM 28 °F - 28 °F 100% 30.40 in 1 mi Calm Calm - -   Mist
10:00 AM 30.2 °F - 30.2 °F 100% 30.39 in 2.5 mi NNW 2.3 mph - N/A Fog Fog
10:30 AM 32.0 °F - 32.0 °F 100% 30.39 in 3.1 mi North 2.3 mph - N/A   Mist
11:00 AM 31 °F - 31 °F 100% 30.42 in 1 mi North 2.2 mph - -   Mist
11:00 AM 32.0 °F - 32.0 °F 100% 30.39 in 3.1 mi Variable 1.2 mph - N/A   Mist
11:30 AM 35.6 °F - 35.6 °F 100% 30.39 in 3.7 mi Variable 1.2 mph - N/A   Unknown
12:00 PM 34 °F - 32 °F 89% 30.42 in 1 mi North 2.2 mph - -   Mist
12:00 PM 35.6 °F - 35.6 °F 100% 30.39 in 4.3 mi North 2.3 mph - N/A   Unknown
12:30 PM 37.4 °F 34.9 °F 37.4 °F 100% 30.39 in 5.6 mi NNE 3.5 mph - N/A   Unknown
1:00 PM 38 °F - 34 °F 80% 30.43 in 1 mi North 2.2 mph - -   Mist
1:00 PM 39.2 °F - 37.4 °F 93% 30.39 in - Variable 2.3 mph - N/A   Clear
1:30 PM 39.2 °F 35.0 °F 37.4 °F 93% 30.39 in - NNE 5.8 mph - N/A   Clear
2:00 PM 40 °F - 34 °F 72% 30.43 in 1 mi North 4.5 mph - -   Mist
2:00 PM 41.0 °F 38.0 °F 39.2 °F 93% 30.39 in - North 4.6 mph - N/A   Clear
2:30 PM 42.8 °F 41.1 °F 37.4 °F 81% 30.39 in - North 3.5 mph - N/A   Clear
3:00 PM 42 °F - 34 °F 64% 30.42 in 2 mi North 2.2 mph - -   Mist
3:00 PM 42.8 °F 38.0 °F 37.4 °F 81% 30.39 in - NNE 8.1 mph - N/A   Clear
3:30 PM 42.8 °F 38.0 °F 37.4 °F 81% 30.42 in - NNE 8.1 mph - N/A   Clear
4:00 PM 42 °F - 34 °F 64% 30.43 in 6 mi North 4.5 mph - -  
4:00 PM 41.0 °F 36.4 °F 35.6 °F 81% 30.42 in - NNE 6.9 mph - N/A   Clear
4:30 PM 39.2 °F 35.0 °F 37.4 °F 93% 30.45 in - North 5.8 mph - N/A   Clear
5:00 PM 40 °F - 33 °F 69% 30.46 in 6 mi North 6.7 mph - -  
5:00 PM 37.4 °F 32.8 °F 37.4 °F 100% 30.45 in - NNE 5.8 mph - N/A   Clear
5:30 PM 37.4 °F 33.8 °F 35.6 °F 93% 30.45 in - North 4.6 mph - N/A   Clear
6:00 PM 37 °F - 32 °F 76% 30.48 in 6 mi North 4.5 mph - -  
6:00 PM 33.8 °F 28.6 °F 33.8 °F 100% 30.48 in - North 5.8 mph - N/A   Clear
6:30 PM 35.6 °F 29.9 °F 35.6 °F 100% 30.48 in - North 6.9 mph - N/A   Clear
7:00 PM 37 °F - 32 °F 75% 30.51 in 6 mi NNW 4.5 mph - -  
7:00 PM 33.8 °F 27.7 °F 33.8 °F 100% 30.48 in - North 6.9 mph - N/A   Clear
7:30 PM 35.6 °F 29.9 °F 35.6 °F 100% 30.51 in 5.0 mi North 6.9 mph - N/A   Unknown
8:00 PM 36 °F - 32 °F 81% 30.53 in 6 mi NNW 4.5 mph - -   Scattered Clouds
8:00 PM 35.6 °F 29.9 °F 35.6 °F 100% 30.51 in 5.0 mi North 6.9 mph - N/A   Unknown
8:30 PM 33.8 °F 26.4 °F 33.8 °F 100% 30.51 in 5.0 mi North 9.2 mph - N/A   Unknown
9:00 PM 36 °F - 31 °F 75% 30.54 in 6 mi NNW 6.7 mph - -   Scattered Clouds
9:00 PM 33.8 °F 25.8 °F 33.8 °F 100% 30.51 in 5.0 mi North 10.4 mph - N/A   Unknown
10:00 PM 35 °F - 29 °F 73% 30.56 in 6 mi North 4.5 mph - -   Scattered Clouds
10:00 PM 33.8 °F 27.7 °F 32.0 °F 93% 30.54 in - North 6.9 mph - N/A   Clear
11:00 PM 33 °F - 28 °F 77% 30.59 in 6 mi North 4.5 mph - -  
11:00 PM 33.8 °F 27.0 °F 30.2 °F 87% 30.57 in - NE 8.1 mph - N/A   Clear